QB50P1

Last updated on Tue Jul 01 2025 00:03:06 GMT+0000 (Coordinated Universal Time)

1 40025U 14033R 25181.40755252 .00005033 00000+0 30747-3 0 9993 2 40025 98.0839 165.1619 0009918 355.6709 4.4431 15.10749014599787
UTC large
Height (km)
Speed (km/s)
/
Latitude / Longitude
Inclination (degrees)
Orbital Period (minutes)
Azimuth
Elevation
Range (km)
Doppler Factor

Next 0 passes for location: London (51.5072 / 0.1276)

Sorry there are no passes over London.